Tracking 35275 objects as of 9-Sep-2026
HD Live streaming from Space Station
objects crossing your sky now

STARLINK-3840


STARLINK-3840 is no longer on orbit
STARLINK-3840 is classified as:


NORAD ID: 52466
Int'l Code: 2022-049R
Launch date: May 6, 2022
Source: United States (US)
Launch site: AIR FORCE EASTERN TEST RANGE (AFETR)
Decay date: 2025-05-17
Your satellite tracking list
Your tracking list is empty




NASA's NSSDC Master Catalog

Two Line Element Set (TLE):
1 52466U 22049R   25136.69640064  .10069869  12055-4  30210-2 0  9996
2 52466  53.1601 247.6395 0008565 310.1679 196.7096 16.26174294168474
Source of the keplerian elements: AFSPC